HORIZONS-3E (43633 NORAD) Tracking and Keplerian Element Data

This shows tracking and keplerian element data for the satellite.

Feedback or suggestion? Click here.




ElementValue
Catalog43633
NameHORIZONS-3E
Epoch Orbit2654
Epoch Day354.15680571
Epoch Year2025
RAAN239.0964
Inclination0.0094
Eccentricity6.11E-05
Argument of Perigee65.1042
Mean Anonmoly10.2189
Mean Motion1.00269734
Decay Rate0
L11 43633U 18074B 25354.15680571 .00000000 00000+0 00000+0 0 9999
L22 43633 0.0094 239.0964 0000611 65.1042 10.2189 1.00269734 26543



Live tracking and technical data element details for HORIZONS-3E (NORAD 43633). HORIZONS-3E can be tracked NOW for your location showing map with azimuth and elevation plus other details from your city location.







IsCatalogInMostPopularTable: catalog: 43633, numindb: 717
Update: records affected: 1



GetName: 43633 HORIZONS-3E

Hit Count: updated at: Mon, 18 May 2026 09:13:50 GMT